Time,TemperatureF,DewpointF,PressureIn,WindDirection,WindDirectionDegrees,WindSpeedMPH,WindSpeedGustMPH,Humidity,HourlyPrecipIn,Conditions,Clouds,dailyrainin,SoftwareType,DateUTC
2013-08-01 00:11:00,75.4,56.0,29.84,SSE,153,0.0,4.0,51,0.00,,,0.00,weatherlink.com 1.10,2013-08-01 05:11:00,
2013-08-01 00:26:00,74.9,56.0,29.84,SSE,148,0.0,2.0,52,0.00,,,0.00,weatherlink.com 1.10,2013-08-01 05:26:00,
2013-08-01 00:41:00,72.6,56.0,29.84,SSE,148,0.0,0.0,56,0.00,,,0.00,weatherlink.com 1.10,2013-08-01 05:41:00,
2013-08-01 00:56:00,72.7,55.0,29.84,SSE,148,0.0,0.0,55,0.00,,,0.00,weatherlink.com 1.10,2013-08-01 05:56:00,
2013-08-01 01:11:00,72.9,56.0,29.84,SSE,148,0.0,0.0,55,0.00,,,0.00,weatherlink.com 1.10,2013-08-01 06:11:00,
2013-08-01 01:27:00,73.2,55.0,29.84,SSE,148,0.0,1.0,54,0.00,,,0.00,weatherlink.com 1.10,2013-08-01 06:27:00,
2013-08-01 01:42:00,73.3,55.0,29.84,SSE,148,0.0,1.0,53,0.00,,,0.00,weatherlink.com 1.10,2013-08-01 06:42:00,
2013-08-01 01:57:00,73.5,55.0,29.84,SE,146,0.0,2.0,52,0.00,,,0.00,weatherlink.com 1.10,2013-08-01 06:57:00,
2013-08-01 02:12:00,73.5,55.0,29.84,SE,142,0.0,2.0,52,0.00,,,0.00,weatherlink.com 1.10,2013-08-01 07:12:00,
2013-08-01 02:27:00,73.5,55.0,29.84,SE,142,0.0,1.0,52,0.00,,,0.00,weatherlink.com 1.10,2013-08-01 07:27:00,
2013-08-01 02:42:00,73.5,55.0,29.84,SE,142,0.0,2.0,52,0.00,,,0.00,weatherlink.com 1.10,2013-08-01 07:42:00,
2013-08-01 02:57:00,73.9,55.0,29.83,ESE,108,0.0,4.0,52,0.00,,,0.00,weatherlink.com 1.10,2013-08-01 07:57:00,
2013-08-01 03:12:00,72.5,55.0,29.83,ESE,108,0.0,0.0,54,0.00,,,0.00,weatherlink.com 1.10,2013-08-01 08:12:00,
2013-08-01 03:27:00,73.2,55.0,29.83,East,98,0.0,3.0,53,0.00,,,0.00,weatherlink.com 1.10,2013-08-01 08:27:00,
2013-08-01 03:42:00,70.8,55.0,29.83,East,98,0.0,1.0,57,0.00,,,0.00,weatherlink.com 1.10,2013-08-01 08:42:00,
2013-08-01 03:57:00,69.9,55.0,29.83,East,98,0.0,1.0,59,0.00,,,0.00,weatherlink.com 1.10,2013-08-01 08:57:00,
2013-08-01 04:12:00,71.3,55.0,29.83,East,100,0.0,2.0,56,0.00,,,0.00,weatherlink.com 1.10,2013-08-01 09:12:00,
2013-08-01 04:27:00,68.5,55.0,29.84,East,100,0.0,1.0,63,0.00,,,0.00,weatherlink.com 1.10,2013-08-01 09:27:00,
2013-08-01 04:42:00,70.3,55.0,29.83,East,98,1.0,3.0,59,0.00,,,0.00,weatherlink.com 1.10,2013-08-01 09:42:00,
2013-08-01 04:57:00,68.5,55.0,29.83,ESE,123,0.0,2.0,63,0.00,,,0.00,weatherlink.com 1.10,2013-08-01 09:57:00,
2013-08-01 05:12:00,69.2,55.0,29.83,ESE,123,0.0,1.0,60,0.00,,,0.00,weatherlink.com 1.10,2013-08-01 10:12:00,
2013-08-01 05:42:00,68.8,55.0,29.83,ESE,123,0.0,1.0,62,0.00,,,0.00,weatherlink.com 1.10,2013-08-01 10:42:00,
2013-08-01 05:57:00,68.6,55.0,29.83,ESE,123,0.0,0.0,63,0.00,,,0.00,weatherlink.com 1.10,2013-08-01 10:57:00,
2013-08-01 06:27:00,67.6,56.0,29.83,ESE,123,0.0,1.0,66,0.00,,,0.00,weatherlink.com 1.10,2013-08-01 11:27:00,
2013-08-01 06:57:00,67.0,56.0,29.83,ESE,123,0.0,1.0,67,0.00,,,0.00,weatherlink.com 1.10,2013-08-01 11:57:00,
2013-08-01 07:12:00,67.6,56.0,29.84,ESE,123,0.0,0.0,66,0.00,,,0.00,weatherlink.com 1.10,2013-08-01 12:12:00,
2013-08-01 07:27:00,67.8,56.0,29.85,ESE,123,0.0,0.0,66,0.00,,,0.00,weatherlink.com 1.10,2013-08-01 12:27:00,
2013-08-01 07:42:00,68.8,56.0,29.85,ESE,123,0.0,0.0,65,0.00,,,0.00,weatherlink.com 1.10,2013-08-01 12:42:00,
2013-08-01 07:57:00,67.4,56.0,29.85,ESE,123,0.0,0.0,68,0.00,,,0.00,weatherlink.com 1.10,2013-08-01 12:57:00,
2013-08-01 08:12:00,68.8,57.0,29.85,ESE,123,0.0,0.0,66,0.00,,,0.00,weatherlink.com 1.10,2013-08-01 13:12:00,
2013-08-01 09:12:00,72.1,60.0,29.86,ESE,123,0.0,1.0,65,0.00,,,0.00,weatherlink.com 1.10,2013-08-01 14:12:00,
2013-08-01 09:27:00,73.6,59.0,29.86,SE,144,1.0,1.0,60,0.00,,,0.00,weatherlink.com 1.10,2013-08-01 14:27:00,
2013-08-01 09:42:00,76.6,58.0,29.86,SE,144,0.0,0.0,53,0.00,,,0.00,weatherlink.com 1.10,2013-08-01 14:42:00,
2013-08-01 10:12:00,79.7,58.0,29.86,South,169,0.0,2.0,47,0.00,,,0.00,weatherlink.com 1.10,2013-08-01 15:12:00,
2013-08-01 11:13:00,84.6,53.0,29.85,ESE,103,2.0,7.0,34,0.00,,,0.00,weatherlink.com 1.10,2013-08-01 16:13:00,
2013-08-01 11:28:00,85.1,50.0,29.85,ESE,107,8.0,12.0,30,0.00,,,0.00,weatherlink.com 1.10,2013-08-01 16:28:00,
2013-08-01 11:43:00,85.4,50.0,29.85,ESE,113,4.0,15.0,29,0.00,,,0.00,weatherlink.com 1.10,2013-08-01 16:43:00,
2013-08-01 11:58:00,85.8,50.0,29.85,ESE,109,11.0,17.0,29,0.00,,,0.00,weatherlink.com 1.10,2013-08-01 16:58:00,
2013-08-01 12:28:00,86.6,47.0,29.85,East,91,8.0,13.0,25,0.00,,,0.00,weatherlink.com 1.10,2013-08-01 17:28:00,
2013-08-01 12:43:00,87.9,47.0,29.85,ESE,115,2.0,15.0,24,0.00,,,0.00,weatherlink.com 1.10,2013-08-01 17:43:00,
2013-08-01 12:58:00,88.3,47.0,29.85,SE,133,11.0,15.0,24,0.00,,,0.00,weatherlink.com 1.10,2013-08-01 17:58:00,
2013-08-01 13:13:00,88.4,48.0,29.84,SE,129,8.0,16.0,25,0.00,,,0.00,weatherlink.com 1.10,2013-08-01 18:13:00,
2013-08-01 13:43:00,89.7,47.0,29.84,ESE,122,4.0,16.0,23,0.00,,,0.00,weatherlink.com 1.10,2013-08-01 18:43:00,
2013-08-01 13:58:00,88.9,47.0,29.83,East,92,11.0,15.0,23,0.00,,,0.00,weatherlink.com 1.10,2013-08-01 18:58:00,
2013-08-01 14:28:00,90.0,46.0,29.82,ESE,119,5.0,12.0,22,0.00,,,0.00,weatherlink.com 1.10,2013-08-01 19:28:00,
2013-08-01 14:58:00,91.4,46.0,29.81,ESE,114,1.0,16.0,21,0.00,,,0.00,weatherlink.com 1.10,2013-08-01 19:58:00,
2013-08-01 15:14:00,90.9,46.0,29.81,SE,139,4.0,22.0,21,0.00,,,0.00,weatherlink.com 1.10,2013-08-01 20:14:00,
2013-08-01 15:43:00,91.1,45.0,29.80,South,173,6.0,13.0,20,0.00,,,0.00,weatherlink.com 1.10,2013-08-01 20:43:00,
2013-08-01 15:58:00,91.0,46.0,29.79,ESE,105,1.0,14.0,21,0.00,,,0.00,weatherlink.com 1.10,2013-08-01 20:58:00,
2013-08-01 16:14:00,91.8,47.0,29.78,SSE,160,4.0,19.0,21,0.00,,,0.00,weatherlink.com 1.10,2013-08-01 21:14:00,
2013-08-01 16:29:00,91.4,46.0,29.78,SE,144,6.0,15.0,21,0.00,,,0.00,weatherlink.com 1.10,2013-08-01 21:29:00,
2013-08-01 16:44:00,91.3,46.0,29.77,ESE,118,8.0,17.0,21,0.00,,,0.00,weatherlink.com 1.10,2013-08-01 21:44:00,
2013-08-01 16:59:00,91.2,47.0,29.77,ESE,118,7.0,18.0,22,0.00,,,0.00,weatherlink.com 1.10,2013-08-01 21:59:00,
2013-08-01 17:14:00,91.2,47.0,29.76,ENE,70,7.0,17.0,22,0.00,,,0.00,weatherlink.com 1.10,2013-08-01 22:14:00,
2013-08-01 17:29:00,91.5,46.0,29.76,East,101,1.0,18.0,21,0.00,,,0.00,weatherlink.com 1.10,2013-08-01 22:29:00,
2013-08-01 17:44:00,90.7,47.0,29.75,ESE,112,4.0,13.0,22,0.00,,,0.00,weatherlink.com 1.10,2013-08-01 22:44:00,
2013-08-01 17:59:00,91.3,47.0,29.75,ESE,123,4.0,14.0,22,0.00,,,0.00,weatherlink.com 1.10,2013-08-01 22:59:00,
2013-08-01 18:14:00,90.3,48.0,29.74,East,95,7.0,17.0,23,0.00,,,0.00,weatherlink.com 1.10,2013-08-01 23:14:00,
2013-08-01 18:44:00,89.4,47.0,29.74,ESE,109,16.0,21.0,23,0.00,,,0.00,weatherlink.com 1.10,2013-08-01 23:44:00,
2013-08-01 18:59:00,89.2,47.0,29.74,ESE,103,13.0,17.0,23,0.00,,,0.00,weatherlink.com 1.10,2013-08-01 23:59:00,
2013-08-01 19:44:00,87.5,45.0,29.75,East,98,7.0,15.0,23,0.00,,,0.00,weatherlink.com 1.10,2013-08-02 00:44:00,
2013-08-01 19:59:00,86.8,46.0,29.75,ESE,105,3.0,11.0,24,0.00,,,0.00,weatherlink.com 1.10,2013-08-02 00:59:00,
2013-08-01 20:14:00,86.0,45.0,29.76,ESE,117,5.0,13.0,24,0.00,,,0.00,weatherlink.com 1.10,2013-08-02 01:14:00,
2013-08-01 20:29:00,85.3,46.0,29.76,ESE,118,5.0,13.0,25,0.00,,,0.00,weatherlink.com 1.10,2013-08-02 01:29:00,
2013-08-01 20:44:00,84.3,46.0,29.76,ESE,111,3.0,7.0,26,0.00,,,0.00,weatherlink.com 1.10,2013-08-02 01:44:00,
2013-08-01 20:59:00,83.5,46.0,29.76,ESE,120,5.0,10.0,27,0.00,,,0.00,weatherlink.com 1.10,2013-08-02 01:59:00,
2013-08-01 21:14:00,82.6,46.0,29.77,ESE,109,0.0,5.0,28,0.00,,,0.00,weatherlink.com 1.10,2013-08-02 02:14:00,
2013-08-01 21:29:00,81.8,47.0,29.77,ESE,107,1.0,8.0,29,0.00,,,0.00,weatherlink.com 1.10,2013-08-02 02:29:00,
2013-08-01 21:59:00,79.1,47.0,29.77,ESE,121,0.0,1.0,32,0.00,,,0.00,weatherlink.com 1.10,2013-08-02 02:59:00,
2013-08-01 22:29:00,77.7,47.0,29.78,ESE,119,0.0,0.0,34,0.00,,,0.00,weatherlink.com 1.10,2013-08-02 03:29:00,
2013-08-01 22:44:00,78.6,47.0,29.79,ESE,114,1.0,5.0,33,0.00,,,0.00,weatherlink.com 1.10,2013-08-02 03:44:00,
2013-08-01 22:59:00,78.7,47.0,29.78,SE,137,0.0,3.0,33,0.00,,,0.00,weatherlink.com 1.10,2013-08-02 03:59:00,
2013-08-01 23:14:00,78.0,47.0,29.79,SSW,193,0.0,6.0,34,0.00,,,0.00,weatherlink.com 1.10,2013-08-02 04:14:00,
2013-08-01 23:29:00,77.5,48.0,29.79,East,90,0.0,5.0,35,0.00,,,0.00,weatherlink.com 1.10,2013-08-02 04:29:00,
2013-08-01 23:44:00,77.8,49.0,29.79,SE,133,0.0,8.0,36,0.00,,,0.00,weatherlink.com 1.10,2013-08-02 04:44:00,
2013-08-01 23:59:00,77.8,49.0,29.78,South,178,2.0,10.0,36,0.00,,,0.00,weatherlink.com 1.10,2013-08-02 04:59:00,